Location: Dover
(39.1580°N, 75.5250°W)
Time: 17:43:25
(UTC-04:00)

Daily predictions for brighter satellites

Satellite Brightness Start Highest point End
(mag) Time Altitude Azimuth Time Altitude Azimuth Time Altitude Azimuth
Cosmos 2297 Rocket 2.2 19:53:32 10° NNW 19:59:13 76° ENE 20:04:52 10° SSE
CZ-2D R/B 4.2 19:56:59 10° SE 20:00:21 29° ENE 20:03:44 10° N
Resurs 01 Rocket 1.7 19:58:31 10° SSE 20:02:57 89° ENE 20:07:25 10° NNW
Cosmos 2082 3.9 19:57:23 10° NNW 20:03:00 77° WSW 20:08:36 10° SSE
Cosmos 1975 3.1 20:00:49 10° SSE 20:04:46 50° E 20:08:45 10° NNE
Lacrosse 5 rocket 2.5 20:02:41 10° WNW 20:06:07 35° SW 20:09:27 10° SSE
ATLAS 2A CENTAUR R/B 4.1 20:05:23 10° WSW 20:07:18 11° SW 20:08:44 10° SSW
FengYun 1-2 T 4.3 20:01:48 10° SSE 20:07:23 70° ENE 20:12:57 10° N
Cosmos 2150 Rocket 4.2 20:07:34 10° N 20:12:36 50° ENE 20:17:37 10° SE
HJ-1C 4.1 20:11:30 10° S 20:14:43 55° W 20:17:59 10° NNW
METEOR-M 4.4 20:10:10 10° S 20:15:30 73° WSW 20:20:52 10° NNW
Cosmos 1515 4.1 20:12:05 10° N 20:15:46 43° E 20:19:25 10° SSE
Cosmos 2084 3.5 20:15:41 10° NW 20:19:46 78° WSW 20:24:06 10° SSE
Cosmos 1898 Rocket 3.6 20:14:47 10° NNW 20:20:03 63° ENE 20:25:14 10° SSE
Cosmos 468 Rocket 3.9 20:21:13 10° SSW 20:26:19 79° ESE 20:31:28 10° NNE
Cosmos 841 Rocket 4.1 20:25:17 10° SSE 20:29:57 34° E 20:34:37 10° NE
Cosmos 1697 Rocket 2.7 20:24:39 10° SSW 20:30:19 90° NW 20:36:00 10° NNE
Cosmos 2173 Rocket 4.3 20:29:14 10° SSE 20:35:17 47° E 20:41:17 10° NNE
H-2A R/B 3.9 20:35:01 13° ENE 20:35:49 14° ENE 20:37:53 10° NNE
Cosmos 1743 3.2 20:32:41 10° SSE 20:36:20 38° E 20:39:59 10° NNE
Cosmos 1626 Rocket 3.9 20:34:17 10° NNW 20:38:38 69° W 20:42:56 10° S
Cosmos 1814 Rocket 4.0 20:36:01 10° SSW 20:41:21 89° ESE 20:46:41 10° NNE
DELTA 2 R/B (1) 4.4 20:36:11 10° W 20:41:22 40° SSW 20:45:24 16° SE
Cosmos 1066 Rocket 4.2 20:36:03 10° N 20:41:47 72° E 20:47:36 10° SSE
CZ-4B DEB 3.8 20:38:40 10° S 20:41:50 48° W 20:45:02 10° NNW
SL-16 R/B 3.1 20:41:49 10° SSE 20:46:22 25° ESE 20:50:56 10° NE
Lacrosse 5 2.0 20:42:12 10° NW 20:47:15 71° SW 20:50:59 18° SSE
Cosmos 1939 Rocket 3.9 20:46:28 24° ESE 20:47:50 29° ENE 20:51:28 10° N
Cosmos 1602 Rocket 4.5 20:45:27 10° NNW 20:49:45 51° W 20:54:00 10° SSW
Cosmos 1758 Rocket 4.4 20:48:53 10° NNE 20:52:45 31° ENE 20:53:45 27° ESE
USA 186 1.9 20:52:31 14° S 20:54:53 60° W 20:57:37 10° NNW
Cosmos 1980 Rocket 2.2 20:49:33 10° SSW 20:55:13 88° ESE 21:00:58 10° NNE
Cosmos 2100 Rocket 3.9 20:49:10 10° S 20:55:24 76° E 21:01:37 10° N
Iridium 4 Rocket 3.4 20:50:36 10° N 20:55:25 73° W 20:59:48 10° S
SPOT 5 4.1 20:57:22 22° E 20:58:13 24° ENE 21:01:57 10° NNE
YAOGAN 11 4.2 20:58:11 26° SE 21:00:32 57° ENE 21:04:54 10° N
FENGYUN 3A 4.3 20:55:35 10° S 21:00:49 56° W 21:06:06 10° NNW
ALOS 3.3 20:58:51 10° S 21:03:18 45° W 21:07:48 10° NNW
H-2A R/B 3.9 21:02:58 10° S 21:06:41 43° W 21:10:27 10° NNW
deb Chang Zheng 4 4.3 21:06:55 10° NNE 21:10:32 34° E 21:10:32 34° E
Cosmos 1666 2.9 21:13:59 48° ENE 21:13:59 48° ENE 21:17:23 10° NNE
Envisat 3.1 21:12:38 35° SE 21:14:34 57° ENE 21:19:33 10° N
RESURS DK-1 3.5 21:11:01 10° NW 21:14:55 40° WSW 21:17:35 18° S
Cosmos 2061 Rocket 4.0 21:08:38 10° S 21:14:56 84° W 21:21:13 10° N
CZ-4 DEB 2.5 21:14:53 80° SSE 21:15:01 88° E 21:18:11 10° NNW
Cosmos 1459 Rocket 4.0 21:09:56 10° S 21:15:58 79° W 21:22:08 10° N
OAO 2 Rocket 4.0 21:12:02 10° W 21:16:42 40° SSW 21:17:57 34° SSE
Cosmos 1937 Rocket 4.1 21:11:41 10° NNW 21:16:51 55° WSW 21:21:07 15° S
Cosmos 1842 3.6 21:15:14 10° N 21:18:45 46° ENE 21:18:45 46° ENE
Cosmos 2263 Rocket 3.3 21:15:00 10° N 21:19:33 25° NE 21:20:21 24° ENE
Cosmos 1606 Rocket 3.5 21:16:54 12° S 21:21:01 84° W 21:25:29 10° N
Tiangong 1 2.3 21:18:35 10° W 21:21:05 34° SW 21:21:05 34° SW
Cosmos 990 Rocket 4.3 21:17:31 10° NNW 21:22:44 67° WSW 21:25:45 25° S
Cosmos 2058 Rocket 3.0 21:22:10 47° SSE 21:23:15 64° E 21:27:44 10° NNE
Cosmos 1725 Rocket 4.0 21:23:02 28° SSE 21:26:14 58° E 21:32:21 10° NNE
Cosmos 1340 3.2 21:26:29 10° NNW 21:30:13 57° W 21:31:12 41° SSW
Cosmos 2322 Rocket 2.0 21:25:09 10° S 21:30:41 67° ESE 21:36:16 10° NNE
ERS-1 Rocket 3.0 21:29:00 32° S 21:31:20 77° WSW 21:36:23 10° NNW
MetOp-A 4.4 21:31:13 45° E 21:31:52 47° ENE 21:37:00 10° N
Cosmos 1726 Rocket 4.1 21:40:10 21° SSW 21:42:53 55° W 21:47:14 10° N
Meteor 2-9 Rocket 4.1 21:42:27 28° SSW 21:45:27 85° W 21:50:52 10° N
Cosmos 2233 Rocket 4.1 21:46:04 51° E 21:46:15 51° E 21:52:15 10° NNE
H-2A R/B 3.7 21:54:30 19° NE 21:54:30 19° NE 21:56:44 10° NNE
Cosmos 783 Rocket 4.4 21:54:20 71° ENE 21:54:20 71° ENE 21:59:13 10° NNE
Meteor 2-5 Rocket 4.4 21:52:28 10° N 21:57:20 40° ENE 21:57:20 40° ENE
Meteor 1-15 Rocket 4.4 21:56:10 31° SSW 21:59:08 76° W 22:05:00 10° N
BREEZE-M DEB (TANK) 3.3 21:57:41 10° NW 21:59:21 43° NW 21:59:21 43° NW
ASTEX 1 3.7 21:59:40 10° N 22:04:38 66° W 22:05:15 59° WSW
Cosmos 2228 3.8 22:08:22 48° NW 22:08:22 48° NW 22:11:51 10° N
Cosmos 1125 Rocket 3.7 22:03:11 10° NNW 22:08:21 64° WSW 22:08:30 64° WSW
H-2A R/B 3.1 22:12:09 42° WNW 22:12:09 42° WNW 22:15:25 10° NNW
Cosmos 540 Rocket 3.6 22:12:08 69° WNW 22:12:08 69° WNW 22:17:17 10° NNE
SPOT 1/Viking Rocket 3.9 22:13:18 59° NNE 22:13:18 59° NNE 22:17:37 10° N
Cosmos 332 Rocket 4.4 22:17:01 55° WNW 22:17:06 55° WNW 22:21:56 10° N
ARGOS 3.4 22:20:24 61° N 22:20:24 61° N 22:24:53 10° N
USA 245 4.5 22:26:45 79° WSW 22:26:49 79° WSW 22:33:07 10° NNW
SL-16 R/B 3.3 22:24:50 10° SW 22:30:11 42° WNW 22:35:35 10° N
BREEZE-M TANK 4.5 22:27:42 10° WNW 22:31:14 26° W 22:31:14 26° W
SPOT 5 4.2 22:36:38 35° W 22:36:38 35° W 22:40:29 10° NNW
Cosmos 2360 Rocket 3.6 22:42:34 29° NNE 22:42:34 29° NNE 22:45:15 10° NNE
Terra 3.7 22:47:05 24° N 22:47:05 24° N 22:49:01 10° N
Cosmos 2263 Rocket 3.5 22:58:23 10° NW 23:02:03 35° WNW 23:02:03 35° WNW
H-2A R/B 4.2 23:35:07 20° NW 23:35:07 20° NW 23:36:48 10° NNW
USA 215 4.1 23:39:53 46° NNW 23:39:53 46° NNW 23:44:26 10° NW
